This demonstration page uses our WeatherBlox Daily Observations layout. Learn more.

Left ArrowRight Arrow

30.21309, -93.2044

Hourly Observations for March 2, 2015

Temp ( °F °C ) Dew Point ( °F °C ) Humidity (%) Winds ( mph kmh ) Pressure ( in mb ) Visibility ( mi km ) Precip ( " mm )
12:15 am 00:15 Cloudy with Rain 63 17.1 63 17 99 99 NE 3 6 30.24 1024 3 4 0.01 0.25
12:35 am 00:35 Cloudy with Light Rain 63 17 63 17 100 100 Calm 30.24 1024 3 4 0.05 1.27
12:55 am 00:55 Cloudy with Drizzle 63 17 62 16.9 99 99 NNE 3 6 30.24 1024 3 5 0.05 1.27
1:15 am 01:15 Cloudy with Mist and Fog 63 17 62 16.8 99 99 NNE 3 6 30.24 1024 3 4 0.01 0.25
1:35 am 01:35 Cloudy with Mist and Fog 63 17 62 16.8 99 99 NNE 5 7 30.24 1024 2 3 0.01 0.25
1:55 am 01:55 Cloudy with Rain 63 17 63 17 100 100 NE 5 7 30.24 1024 3 4 0.01 0.25
2:15 am 02:15 Cloudy with Mist and Fog 63 17 63 17 100 100 NE 7 11 30.24 1024 3 5 0.00 0.00
2:35 am 02:35 Cloudy with Light Rain 63 17 63 17 100 100 NE 7 11 30.21 1023 3 5 0.00 0.00
2:55 am 02:55 Cloudy with Mist and Fog 63 17 63 17 100 100 NE 6 9 30.21 1023 4 6 0.00 0.00
3:15 am 03:15 Cloudy with Light Rain 63 17 62 16.9 99 99 NE 6 9 30.21 1023 4 6 0.03 0.76
6:00 am 06:00 Cloudy with Mist and Fog 63 17 63 17 100 100 Calm 30.21 1023 3 5 0.00 0.00
7:55 am 07:55 Cloudy with Mist and Fog 57 14 57 14 100 100 Calm 30.27 1025 2 3 0.00 0.00
8:45 am 08:45 Cloudy with Mist and Fog 57 14 57 14 100 100 VRB 6 9 30.27 1025 6 10 0.00 0.00
11:50 am 11:50 Cloudy with Mist and Fog 57 14 57 14 100 100 VRB 6 9 30.27 1025 4 6 0.00 0.00
12:50 pm 12:50 Cloudy with Mist and Fog 55 13 55 13 100 100 VRB 5 7 30.27 1025 5 8 0.00 0.00
1:50 pm 13:50 Cloudy with Mist and Fog 57 14 55 13 94 94 VRB 5 7 30.24 1024 6 10 0.00 0.00
3:50 pm 15:50 Cloudy with Mist and Fog 57 14 55 13 94 94 VRB 5 7 30.21 1023 6 10 0.00 0.00
4:50 pm 16:50 Cloudy with Mist and Fog 55 13 55 13 100 100 VRB 5 7 30.21 1023 5 8 0.00 0.00
5:50 pm 17:50 Cloudy with Fog 55 13 55 13 100 100 ENE 6 9 30.21 1023 1 1 0.00 0.00
8:15 pm 20:15 Cloudy with Mist and Fog 54 12.3 54 12.2 99 99 NE 5 7 30.21 1023 1 2 0.00 0.00
8:35 pm 20:35 Cloudy with Mist and Fog 54 12.1 54 12.1 100 100 ENE 7 11 30.21 1023 1 1 0.00 0.00
8:55 pm 20:55 Cloudy with Mist and Fog 54 12.1 54 12 99 99 ENE 6 9 30.21 1023 1 1 0.00 0.00
9:15 pm 21:15 Cloudy with Mist and Fog 54 12 54 12 100 100 ENE 6 9 30.21 1023 1 1 0.00 0.00
9:35 pm 21:35 Cloudy with Mist and Fog 54 12 53 11.9 99 99 ENE 5 7 30.21 1023 1 2 0.00 0.00
9:50 pm 21:50 Cloudy with Fog 54 12 54 12 100 100 ENE 5 7 30.21 1023 0 0 0.00 0.00
9:55 pm 21:55 Cloudy with Mist and Fog 53 11.7 53 11.6 99 99 NE 5 7 30.21 1023 1 2 0.00 0.00
10:15 pm 22:15 Cloudy with Fog 53 11.7 53 11.6 99 99 ENE 3 6 30.21 1023 1 1 0.00 0.00
10:35 pm 22:35 Cloudy with Fog 53 11.6 53 11.5 99 99 NE 5 7 30.18 1022 1 1 0.00 0.00
10:55 pm 22:55 Cloudy with Mist and Fog 53 11.5 53 11.5 100 100 ENE 7 11 30.18 1022 1 1 0.00 0.00
11:15 pm 23:15 Cloudy with Mist and Fog 53 11.5 53 11.5 100 100 ENE 5 7 30.18 1022 1 1 0.00 0.00
11:35 pm 23:35 Cloudy with Mist and Fog 53 11.5 53 11.5 100 100 Calm 30.18 1022 1 2 0.00 0.00
11:55 pm 23:55 Cloudy with Mist and Fog 53 11.5 53 11.5 100 100 ENE 5 7 30.18 1022 2 3 0.00 0.00

Powered by AerisWeather